378  
ASUS43 KLSX 291310  
RWRMO  
 
WEATHER SUMMARY FOR MISSOURI  
NATIONAL WEATHER SERVICE SPRINGFIELD MO  
800 AM CDT SAT APR 29 2017  
 
NOTE: "FAIR" INDICATES FEW OR NO CLOUDS BELOW 12,000 FEET WITH NO  
SIGNIFICANT WEATHER AND/OR S TO VISIBILITY
.  
CURRENT SKY AND/OR WEATHER CONDITIONS ARE NOT AVAILABLE FOR  
CHILLICOTHE AND FARMINGTON.  
 
MOZ001>031-035>038-043-044-053-054-291400-   
..NORTHERN AND WESTERN MISSOURI
 
 
 
CITY SKY/WX TMP DP RH WIND PRES REMARKS
 
KANSAS CTY INT RAIN 45 44 97 N17G26 29.89R FOG  
KANSAS C DTWN LGT RAIN 48 46 93 NE10 29.90R  
LEE'S SUMMIT TSTM 47 47 100 N12 29.89R  
ST JOSEPH CLOUDY 45 44 97 NE18G26 29.96F  
CHILLICOTHE N/A 47 45 93 N13G23 29.92F  
KIRKSVILLE CLOUDY 47 32 56 NE21G31 29.91F HAZE  
 

 
MOZ066>068-077>081-088>096-101>105-291400-   
..SOUTHWEST MISSOURI
 
 
 
CITY SKY/WX TMP DP RH WIND PRES REMARKS
 
SPRINGFIELD TSTM 61 59 93 N12 29.71R FOG  
JOPLIN CLOUDY 53 53 100 N13G22 29.73F THUNDER  
BRANSON LGT RAIN 63 63 100 E9G17 29.73F FOG  
 

 
MOZ032>034-039>042-045>050-055>058-069>072-291400-   
..CENTRAL MISSOURI
 
 
 
CITY SKY/WX TMP DP RH WIND PRES REMARKS
 
COLUMBIA CLOUDY 55 54 96 E16 29.85R  
JEFFERSON CITY CLOUDY 58 53 84 E9 29.86R  
ROLLA LGT RAIN 58 32 37 E14G23 29.83R  
SEDALIA LGT RAIN 52 52 100 E14 29.83F FOG  
WHITEMAN AFB LGT RAIN 50 50 100 NE9 29.84R  
OSAGE BEACH TSTM 57 57 100 NE9 29.82R  
 

 
MOZ051-052-059>065-291400-   
..EAST CENTRAL MISSOURI
 
 
 
CITY SKY/WX TMP DP RH WIND PRES REMARKS
 
ST LOUIS INTL CLOUDY 59 56 89 E12 29.88R THUNDER  
SPIRIT OF STL CLOUDY 59 58 96 E9 29.87R THUNDER  
ST CHARLES CLOUDY 58 57 97 E13 29.87R  
 

 
MOZ072>076-082>087-097>100-106>115-291400-   
..SOUTH CENTRAL AND SOUTHEAST MISSOURI
 
 
 
CITY SKY/WX TMP DP RH WIND PRES REMARKS
 
CAPE GIRARDEAU LGT RAIN 65 62 90 E12G26 29.91R  
FARMINGTON TSTM 59 58 96 E10 29.88R  
POPLAR BLUFF CLOUDY 67 66 97 NE7 29.86R  
WEST PLAINS RAIN 62 60 93 E14 29.81R FOG  
 

 
 
 
CLICK HERE TO GO TO PREVIOUS BULLETINS.

The Nexlab MO Page Main Text Page